Location: Bartshausen
(51.8454°N, 9.8167°E)
Time: 03:00:53
(UTC+00:00)

Cosmos 2151 Rocket - Visible Passes

Search period start: 19 February 2026 00:00
Search period end: 01 March 2026 00:00
Orbit: 613 x 635 km, 82.5° (Epoch: 18 February)

Date Brightness Start Highest point End Pass type
(mag) Time Alt. Az. Time Alt. Az. Time Alt. Az.
19 Feb 6.3 04:41:18 10° SE 04:44:43 22° E 04:48:11 10° NE visible
19 Feb 6.9 18:00:50 10° NW 18:03:11 14° W 18:05:32 10° WSW visible
20 Feb 5.3 04:59:11 10° SSE 05:03:17 37° E 05:07:24 10° NNE visible
21 Feb 4.1 05:17:31 10° S 05:21:55 66° E 05:26:23 10° NNE visible
22 Feb 6.8 04:00:40 10° ESE 04:03:17 16° E 04:05:55 10° NE visible
22 Feb 3.6 05:36:15 10° SSW 05:40:41 72° WNW 05:45:10 10° N visible
22 Feb 6.6 17:18:27 10° NW 17:21:46 20° W 17:25:03 10° SW visible
23 Feb 5.9 04:18:05 10° SE 04:21:46 26° E 04:25:28 10° NNE visible
23 Feb 7.1 17:38:28 10° WNW 17:40:12 12° W 17:41:54 10° WSW visible
24 Feb 4.9 04:36:07 10° SSE 04:40:21 44° E 04:44:37 10° NNE visible
25 Feb 7.0 03:21:03 10° E 03:21:54 10° ENE 03:22:46 10° ENE visible
25 Feb 3.8 04:54:34 10° S 04:59:01 78° E 05:03:32 10° NNE visible
26 Feb 6.4 03:37:17 10° SE 03:40:18 18° E 03:43:21 10° NE visible
26 Feb 3.6 05:13:24 10° SSW 05:17:48 61° WNW 05:22:17 10° N visible
27 Feb 5.6 03:54:56 10° SSE 03:58:48 30° E 04:02:44 10° NNE visible
27 Feb 4.2 05:32:35 10° SW 05:36:42 35° WNW 05:40:52 10° N visible
28 Feb 4.4 04:13:05 10° S 04:17:25 52° E 04:21:48 10° NNE visible
